Location: Newark
(42.8481°N, 0.4872°E)
Time: 18:28:16
(UTC+00:00)

Vanguard 1 - Pass Details

Date: 05 November 2020
Orbit: 650 x 3833 km, 34.2° (Epoch: 23 November)

Event Time Altitude Azimuth Distance (km) Brightness Sun altitude
Rises 09:37:11 0° 220° (SW) 5,966 14.3 24.7°
Reaches altitude 10° 09:40:46 10° 214° (SW) 5,325 14.2 25.0°
Maximum altitude 09:57:01 47° 147° (SSE) 4,234 14.9 26.5°
Drops below altitude 10° 10:18:26 10° 84° (E) 6,889 14.7 28.2°
Sets 10:23:52 0° 79° (E) 7,776 14.8 28.6°
